Time,TemperatureF,DewpointF,PressureIn,WindDirection,WindDirectionDegrees,WindSpeedMPH,WindSpeedGustMPH,Humidity,HourlyPrecipIn,Conditions,Clouds,dailyrainin,SoftwareType,DateUTC
2013-02-08 00:02:00,55.0,55.0,29.88,ENE,59,3.0,8.0,99,0.61,,,2.06,,2013-02-08 05:02:00,
2013-02-08 00:12:00,55.0,55.0,29.88,ENE,59,3.0,8.0,99,0.61,,,2.06,,2013-02-08 05:12:00,
2013-02-08 00:22:00,54.0,54.0,29.85,NW,309,2.0,8.0,99,0.62,,,2.24,,2013-02-08 05:22:00,
2013-02-08 00:32:00,54.0,54.0,29.84,ENE,68,2.0,8.0,99,0.59,,,2.33,,2013-02-08 05:32:00,
2013-02-08 00:42:00,54.0,54.0,29.84,ENE,68,2.0,8.0,99,0.59,,,2.33,,2013-02-08 05:42:00,
2013-02-08 00:52:00,54.0,54.0,29.84,West,276,1.0,4.0,99,0.50,,,2.50,,2013-02-08 05:52:00,
2013-02-08 01:01:00,54.0,54.0,29.83,North,9,2.0,3.0,99,0.53,,,2.60,,2013-02-08 06:01:00,
2013-02-08 01:11:00,54.0,54.0,29.83,North,9,2.0,3.0,99,0.53,,,2.60,,2013-02-08 06:11:00,
2013-02-08 01:21:00,55.0,55.0,29.79,East,85,1.0,3.0,100,0.76,,,3.01,,2013-02-08 06:21:00,
2013-02-08 01:32:00,55.0,55.0,29.77,ESE,107,2.0,5.0,100,0.72,,,3.06,,2013-02-08 06:32:00,
2013-02-08 01:42:00,55.0,55.0,29.77,ESE,107,2.0,5.0,100,0.72,,,3.06,,2013-02-08 06:42:00,
2013-02-08 01:52:00,55.0,55.0,29.75,SSW,193,2.0,4.0,100,0.69,,,3.19,,2013-02-08 06:52:00,
2013-02-08 02:01:00,55.0,55.0,29.73,WSW,245,1.0,3.0,100,0.60,,,3.23,,2013-02-08 07:01:00,
2013-02-08 02:11:00,55.0,55.0,29.70,South,180,1.0,3.0,100,0.36,,,3.37,,2013-02-08 07:11:00,
2013-02-08 02:21:00,55.0,55.0,29.70,South,180,1.0,3.0,100,0.36,,,3.37,,2013-02-08 07:21:00,
2013-02-08 02:32:00,55.0,55.0,29.70,NW,316,1.0,2.0,100,0.38,,,3.44,,2013-02-08 07:32:00,
2013-02-08 02:42:00,55.0,55.0,29.67,North,5,1.0,3.0,100,0.37,,,3.57,,2013-02-08 07:42:00,
2013-02-08 02:52:00,55.0,55.0,29.67,North,5,1.0,3.0,100,0.37,,,3.57,,2013-02-08 07:52:00,
2013-02-08 03:01:00,55.0,55.0,29.66,ENE,57,0.0,1.0,100,0.39,,,3.62,,2013-02-08 08:01:00,
2013-02-08 03:11:00,60.0,60.0,29.61,East,81,2.0,8.0,100,0.36,,,3.74,,2013-02-08 08:11:00,
2013-02-08 03:21:00,60.0,60.0,29.61,East,81,2.0,8.0,100,0.36,,,3.74,,2013-02-08 08:21:00,
2013-02-08 03:32:00,61.0,61.0,29.59,ENE,63,4.0,8.0,100,0.33,,,3.78,,2013-02-08 08:32:00,
2013-02-08 03:42:00,61.0,61.0,29.59,ENE,63,4.0,8.0,100,0.33,,,3.78,,2013-02-08 08:42:00,
2013-02-08 03:52:00,62.0,62.0,29.56,NE,44,2.0,6.0,100,0.26,,,3.83,,2013-02-08 08:52:00,
2013-02-08 04:03:00,62.0,62.0,29.56,ESE,110,2.0,7.0,100,0.22,,,3.85,,2013-02-08 09:03:00,
2013-02-08 04:11:00,62.0,62.0,29.56,ESE,110,2.0,7.0,100,0.22,,,3.85,,2013-02-08 09:11:00,
2013-02-08 04:21:00,62.0,62.0,29.54,ENE,61,1.0,4.0,100,0.12,,,3.86,,2013-02-08 09:21:00,
2013-02-08 04:32:00,62.0,62.0,29.51,ESE,104,2.0,4.0,100,0.09,,,3.87,,2013-02-08 09:32:00,
2013-02-08 04:42:00,62.0,62.0,29.51,ESE,104,2.0,4.0,100,0.09,,,3.87,,2013-02-08 09:42:00,
2013-02-08 04:52:00,62.0,62.0,29.50,NNW,332,1.0,4.0,100,0.05,,,3.89,,2013-02-08 09:52:00,
2013-02-08 05:01:00,62.0,62.0,29.50,ENE,57,0.0,3.0,100,0.04,,,3.89,,2013-02-08 10:01:00,
2013-02-08 05:12:00,62.0,62.0,29.50,ENE,57,0.0,3.0,100,0.04,,,3.89,,2013-02-08 10:12:00,
2013-02-08 05:22:00,61.0,61.0,29.48,ESE,122,0.0,0.0,100,0.02,,,3.89,,2013-02-08 10:22:00,
2013-02-08 05:32:00,61.0,61.0,29.47,ENE,61,2.0,4.0,100,0.02,,,3.89,,2013-02-08 10:32:00,
2013-02-08 05:42:00,61.0,61.0,29.47,ENE,61,2.0,4.0,100,0.02,,,3.89,,2013-02-08 10:42:00,
2013-02-08 05:52:00,61.0,61.0,29.47,SSW,200,3.0,6.0,100,0.00,,,3.89,,2013-02-08 10:52:00,
2013-02-08 06:01:00,60.0,60.0,29.47,NNW,338,3.0,7.0,99,0.00,,,3.89,,2013-02-08 11:01:00,
2013-02-08 06:11:00,60.0,60.0,29.47,NNW,338,3.0,7.0,99,0.00,,,3.89,,2013-02-08 11:11:00,
2013-02-08 06:21:00,56.0,56.0,29.49,NW,317,3.0,6.0,99,0.00,,,3.89,,2013-02-08 11:21:00,
2013-02-08 06:32:00,56.0,56.0,29.49,NW,317,3.0,6.0,99,0.00,,,3.89,,2013-02-08 11:32:00,
2013-02-08 06:42:00,56.0,56.0,29.49,NW,317,3.0,6.0,99,0.00,,,3.89,,2013-02-08 11:42:00,
2013-02-08 06:52:00,51.0,50.0,29.54,NNW,330,4.0,10.0,98,0.00,,,3.89,,2013-02-08 11:52:00,
2013-02-08 07:02:00,50.0,49.0,29.56,NW,318,4.0,11.0,98,0.00,,,3.89,,2013-02-08 12:02:00,
2013-02-08 07:11:00,50.0,49.0,29.56,NW,318,4.0,11.0,98,0.00,,,3.89,,2013-02-08 12:11:00,
2013-02-08 07:22:00,48.0,48.0,29.58,SW,225,4.0,8.0,99,0.00,,,3.89,,2013-02-08 12:22:00,
2013-02-08 07:33:00,48.0,48.0,29.58,SW,225,4.0,8.0,99,0.00,,,3.89,,2013-02-08 12:33:00,
2013-02-08 07:42:00,48.0,48.0,29.58,SW,225,4.0,8.0,99,0.00,,,3.89,,2013-02-08 12:42:00,
2013-02-08 07:52:00,47.0,47.0,29.61,WNW,283,4.0,9.0,99,0.01,,,3.90,,2013-02-08 12:52:00,
2013-02-08 08:02:00,47.0,47.0,29.62,WNW,295,4.0,10.0,99,0.01,,,3.90,,2013-02-08 13:02:00,
2013-02-08 08:12:00,47.0,47.0,29.62,WNW,295,4.0,10.0,99,0.01,,,3.90,,2013-02-08 13:12:00,
2013-02-08 08:22:00,46.0,46.0,29.63,West,276,4.0,12.0,99,0.01,,,3.90,,2013-02-08 13:22:00,
2013-02-08 08:32:00,46.0,46.0,29.65,NW,318,4.0,12.0,99,0.00,,,3.90,,2013-02-08 13:32:00,
2013-02-08 08:42:00,46.0,46.0,29.65,NW,318,4.0,12.0,99,0.00,,,3.90,,2013-02-08 13:42:00,
2013-02-08 08:52:00,46.0,46.0,29.66,NNW,327,5.0,11.0,99,0.00,,,3.90,,2013-02-08 13:52:00,
2013-02-08 09:02:00,46.0,46.0,29.67,NNW,330,5.0,10.0,99,0.00,,,3.90,,2013-02-08 14:02:00,
2013-02-08 09:11:00,46.0,46.0,29.67,NNW,330,5.0,10.0,99,0.00,,,3.90,,2013-02-08 14:11:00,
2013-02-08 09:22:00,47.0,47.0,29.68,NW,323,4.0,10.0,99,0.00,,,3.90,,2013-02-08 14:22:00,
2013-02-08 09:32:00,47.0,46.0,29.68,NNW,342,5.0,10.0,98,0.00,,,3.90,,2013-02-08 14:32:00,
2013-02-08 09:42:00,47.0,46.0,29.68,NNW,342,5.0,10.0,98,0.00,,,3.90,,2013-02-08 14:42:00,
2013-02-08 09:52:00,48.0,47.0,29.69,NW,314,5.0,8.0,97,0.00,,,3.90,,2013-02-08 14:52:00,
2013-02-08 10:02:00,49.0,48.0,29.69,NW,308,4.0,9.0,97,0.00,,,3.90,,2013-02-08 15:02:00,
2013-02-08 10:12:00,49.0,48.0,29.69,NW,308,4.0,9.0,97,0.00,,,3.90,,2013-02-08 15:12:00,
2013-02-08 10:22:00,52.0,50.0,29.71,NNW,345,7.0,11.0,92,0.00,,,3.90,,2013-02-08 15:22:00,
2013-02-08 10:32:00,53.0,50.0,29.72,NNW,342,4.0,10.0,91,0.00,,,3.90,,2013-02-08 15:32:00,
2013-02-08 10:42:00,53.0,50.0,29.72,NNW,342,4.0,10.0,91,0.00,,,3.90,,2013-02-08 15:42:00,
2013-02-08 10:52:00,54.0,51.0,29.74,WNW,282,4.0,7.0,88,0.00,,,3.90,,2013-02-08 15:52:00,
2013-02-08 11:01:00,54.0,51.0,29.74,WNW,282,4.0,7.0,88,0.00,,,3.90,,2013-02-08 16:01:00,
2013-02-08 11:11:00,54.0,51.0,29.74,WNW,282,4.0,7.0,88,0.00,,,3.90,,2013-02-08 16:11:00,
2013-02-08 11:22:00,54.0,51.0,29.74,WNW,282,4.0,7.0,88,0.00,,,3.90,,2013-02-08 16:22:00,
2013-02-08 11:32:00,54.0,51.0,29.74,WNW,282,4.0,7.0,88,0.00,,,3.90,,2013-02-08 16:32:00,
2013-02-08 17:52:00,52.0,47.0,29.85,WNW,299,1.0,5.0,82,0.00,,,3.70,,2013-02-08 22:52:00,
2013-02-08 18:02:00,51.0,46.0,29.85,SW,235,2.0,5.0,83,0.00,,,3.70,,2013-02-08 23:02:00,
2013-02-08 18:11:00,51.0,46.0,29.85,SW,235,2.0,5.0,83,0.00,,,3.70,,2013-02-08 23:11:00,
2013-02-08 18:21:00,51.0,46.0,29.86,NW,316,0.0,6.0,84,0.00,,,3.59,,2013-02-08 23:21:00,
2013-02-08 18:32:00,50.0,46.0,29.86,WSW,246,0.0,1.0,85,0.00,,,3.59,,2013-02-08 23:32:00,
2013-02-08 18:42:00,50.0,46.0,29.86,WSW,246,0.0,1.0,85,0.00,,,3.59,,2013-02-08 23:42:00,
2013-02-08 18:52:00,49.0,46.0,29.87,SE,131,0.0,1.0,88,0.00,,,3.59,,2013-02-08 23:52:00,
2013-02-08 19:02:00,48.0,45.0,29.87,SE,132,0.0,1.0,90,0.00,,,3.59,,2013-02-09 00:02:00,
2013-02-08 19:11:00,48.0,45.0,29.87,SE,132,0.0,1.0,90,0.00,,,3.59,,2013-02-09 00:11:00,
2013-02-08 19:22:00,47.0,45.0,29.88,SE,135,0.0,1.0,92,0.00,,,3.49,,2013-02-09 00:22:00,
2013-02-08 19:32:00,47.0,45.0,29.88,SE,135,0.0,0.0,92,0.00,,,3.49,,2013-02-09 00:32:00,
2013-02-08 19:42:00,47.0,45.0,29.88,SE,135,0.0,0.0,92,0.00,,,3.49,,2013-02-09 00:42:00,
2013-02-08 19:52:00,46.0,44.0,29.88,SE,136,0.0,1.0,94,0.00,,,3.49,,2013-02-09 00:52:00,
2013-02-08 20:01:00,46.0,44.0,29.89,SE,136,0.0,0.0,94,0.00,,,3.49,,2013-02-09 01:01:00,
2013-02-08 20:11:00,46.0,44.0,29.89,SE,136,0.0,0.0,94,0.00,,,3.49,,2013-02-09 01:11:00,
2013-02-08 20:22:00,46.0,45.0,29.89,SE,137,0.0,0.0,95,0.00,,,3.36,,2013-02-09 01:22:00,
2013-02-08 20:32:00,46.0,45.0,29.90,SE,137,0.0,0.0,95,0.00,,,3.36,,2013-02-09 01:32:00,
2013-02-08 20:42:00,46.0,45.0,29.90,SE,137,0.0,0.0,95,0.00,,,3.36,,2013-02-09 01:42:00,
2013-02-08 20:52:00,45.0,44.0,29.90,SE,136,0.0,0.0,96,0.00,,,3.36,,2013-02-09 01:52:00,
2013-02-08 21:01:00,45.0,44.0,29.90,SE,137,0.0,0.0,96,0.00,,,3.36,,2013-02-09 02:01:00,
2013-02-08 21:11:00,45.0,44.0,29.91,WNW,287,0.0,2.0,97,0.00,,,3.11,,2013-02-09 02:11:00,
2013-02-08 21:21:00,45.0,44.0,29.91,WNW,287,0.0,2.0,97,0.00,,,3.11,,2013-02-09 02:21:00,
2013-02-08 21:32:00,45.0,44.0,29.91,South,172,0.0,1.0,97,0.00,,,3.11,,2013-02-09 02:32:00,
2013-02-08 21:42:00,45.0,44.0,29.91,South,172,0.0,1.0,97,0.00,,,3.11,,2013-02-09 02:42:00,
2013-02-08 21:53:00,46.0,45.0,29.91,WNW,291,0.0,2.0,98,0.00,,,3.11,,2013-02-09 02:53:00,
2013-02-08 22:02:00,47.0,46.0,29.92,NW,321,1.0,3.0,98,0.00,,,3.11,,2013-02-09 03:02:00,
2013-02-08 22:11:00,47.0,46.0,29.92,NW,321,1.0,3.0,98,0.00,,,3.11,,2013-02-09 03:11:00,
2013-02-08 22:22:00,49.0,47.0,29.92,WNW,299,1.0,4.0,93,0.00,,,2.77,,2013-02-09 03:22:00,
2013-02-08 22:32:00,49.0,47.0,29.92,WNW,301,2.0,5.0,92,0.00,,,2.77,,2013-02-09 03:32:00,
2013-02-08 22:42:00,49.0,47.0,29.92,WNW,301,2.0,5.0,92,0.00,,,2.77,,2013-02-09 03:42:00,
2013-02-08 22:53:00,50.0,46.0,29.93,NW,321,2.0,8.0,86,0.00,,,2.77,,2013-02-09 03:53:00,
2013-02-08 23:03:00,50.0,46.0,29.94,North,4,3.0,7.0,86,0.00,,,2.77,,2013-02-09 04:03:00,
2013-02-08 23:12:00,50.0,45.0,29.96,NW,305,2.0,6.0,84,0.00,,,2.32,,2013-02-09 04:12:00,
2013-02-08 23:23:00,50.0,45.0,29.96,NW,305,2.0,6.0,84,0.00,,,2.32,,2013-02-09 04:23:00,
2013-02-08 23:32:00,50.0,44.0,29.96,NNW,328,4.0,8.0,81,0.00,,,2.32,,2013-02-09 04:32:00,
2013-02-08 23:42:00,50.0,44.0,29.96,NNW,328,4.0,8.0,81,0.00,,,2.32,,2013-02-09 04:42:00,
2013-02-08 23:52:00,49.0,42.0,29.98,NNW,327,3.0,9.0,77,0.00,,,2.32,,2013-02-09 04:52:00,